DeKalb, IL

5:43 PM CDT on September 19, 2017 (GMT -0500)
De Kalb Taylor Municipal

Weather History for KDKB - June, 2013

Change the Weather History Date:

Saturday, June 29, 2013

  Actual Average (KARR) Record (KARR)
Temperature  
Mean Temperature 66 °F -  
Max Temperature 69 °F 80 °F 96 °F (2005)
Min Temperature 62 °F 59 °F 49 °F (2016)
Growing Degree Days 16 (Base 50)    
Moisture  
Dew Point 62 °F    
Average Humidity 86    
Maximum Humidity 91    
Minimum Humidity 69    
Precipitation  
Precipitation 0.37 in - - ()
Sea Level Pressure  
Sea Level Pressure 29.69 in    
Wind  
Wind Speed 8 mph (North)    
Max Wind Speed 17 mph    
Max Gust Speed 21 mph    
Visibility 8 miles    
Events Rain , Thunderstorm    
Averages and records for this station are not official NWS values.
T = Trace of Precipitation, MM = Missing Value Source: NWS Daily Summary

Daily Weather History Graph

Daily Weather History Graph

Search for Another Location

Airport or City:

Trip Planner

Search our weather history database for the weather conditions in past years. The results will help you decide how hot, cold, wet, or windy it might be!

Date:

Astronomy

Jun. 29, 2013 Rise Set
Actual Time 5:22 AM CDT 8:34 PM CDT
Civil Twilight 4:48 AM CDT 9:08 PM CDT
Nautical Twilight 4:04 AM CDT 9:52 PM CDT
Astronomical Twilight 3:10 AM CDT 10:45 PM CDT
Moon No Moon Rise 12:41 PM CDT (6/29)
Length of Visible Light 16h 20m
Length of Day
15h 11m
Waning Gibbous, 55% of the Moon is Illuminated
Jun 29
Waning Gibbous
Jun 29
Last Quarter
Jul 8
New
Jul 15
First Quarter
Jul 22
Full

Hourly Weather History & Observations

Time (CDT) Temp. Dew Point Humidity Pressure Visibility Wind Dir Wind Speed Gust Speed Precip Events Conditions
12:15 AM 66.4 °F 63.5 °F 90% 29.64 in 10.0 mi WNW 6.9 mph - N/A   Scattered Clouds
12:35 AM 66.2 °F 63.1 °F 90% 29.64 in 10.0 mi WNW 6.9 mph - N/A   Scattered Clouds
12:55 AM 66.2 °F 63.0 °F 89% 29.64 in 10.0 mi WNW 6.9 mph - N/A   Mostly Cloudy
1:15 AM 65.7 °F 62.8 °F 90% 29.63 in 10.0 mi NW 5.8 mph - N/A   Mostly Cloudy
1:35 AM 66.0 °F 63.0 °F 90% 29.63 in 10.0 mi NNW 5.8 mph - N/A   Mostly Cloudy
1:55 AM 66.4 °F 63.5 °F 90% 29.63 in 10.0 mi NNW 6.9 mph - N/A   Overcast
2:15 AM 66.2 °F 63.3 °F 90% 29.63 in 10.0 mi NNW 5.8 mph - N/A   Overcast
2:35 AM 66.2 °F 63.1 °F 90% 29.63 in 10.0 mi NNW 4.6 mph - N/A   Overcast
2:55 AM 65.5 °F 62.6 °F 90% 29.63 in 10.0 mi NNW 4.6 mph - N/A   Scattered Clouds
3:15 AM 65.5 °F 62.6 °F 90% 29.63 in 10.0 mi NNW 4.6 mph - N/A   Mostly Cloudy
3:35 AM 65.3 °F 62.4 °F 90% 29.63 in 10.0 mi Calm Calm - N/A   Mostly Cloudy
3:55 AM 64.9 °F 61.9 °F 90% 29.62 in 10.0 mi Calm Calm - N/A   Mostly Cloudy
4:15 AM 63.9 °F 60.8 °F 90% 29.63 in 10.0 mi NNW 3.5 mph - N/A   Scattered Clouds
4:35 AM 64.4 °F 61.5 °F 90% 29.64 in 7.0 mi Calm Calm - N/A   Mostly Cloudy
4:55 AM 64.9 °F 61.9 °F 90% 29.64 in 10.0 mi NNE 8.1 mph - N/A   Overcast
5:15 AM 65.1 °F 62.1 °F 90% 29.64 in 10.0 mi NNE 5.8 mph - N/A   Overcast
5:35 AM 64.9 °F 61.9 °F 90% 29.65 in 10.0 mi North 6.9 mph - N/A   Overcast
5:55 AM 64.9 °F 62.1 °F 90% 29.65 in 7.0 mi North 4.6 mph - N/A   Mostly Cloudy
6:15 AM 64.9 °F 62.1 °F 90% 29.65 in 7.0 mi North 5.8 mph - N/A   Mostly Cloudy
6:35 AM 64.9 °F 62.1 °F 90% 29.65 in 5.0 mi North 4.6 mph - N/A   Mostly Cloudy
6:55 AM 64.9 °F 62.1 °F 90% 29.65 in 7.0 mi NNW 4.6 mph - 0.01 in   Overcast
7:15 AM 65.5 °F 62.6 °F 90% 29.65 in 7.0 mi NNW 4.6 mph - N/A   Overcast
7:35 AM 65.7 °F 62.8 °F 90% 29.65 in 7.0 mi NNW 4.6 mph - N/A   Mostly Cloudy
7:55 AM 66.2 °F 63.0 °F 89% 29.65 in 7.0 mi NNW 5.8 mph - N/A   Overcast
8:15 AM 66.2 °F 63.1 °F 90% 29.65 in 5.0 mi NNW 4.6 mph - N/A Rain Light Rain
8:35 AM 66.4 °F 63.5 °F 90% 29.65 in 5.0 mi NNW 5.8 mph - N/A   Light Drizzle
8:55 AM 66.7 °F 63.7 °F 90% 29.65 in 7.0 mi NNW 6.9 mph - N/A   Mostly Cloudy
9:15 AM 67.1 °F 63.7 °F 89% 29.66 in 7.0 mi North 5.8 mph - N/A   Overcast
9:35 AM 67.3 °F 64.0 °F 89% 29.66 in 7.0 mi North 8.1 mph - N/A   Overcast
9:55 AM 68.0 °F 64.2 °F 88% 29.65 in 7.0 mi NNE 9.2 mph - N/A   Overcast
10:15 AM 68.4 °F 65.1 °F 89% 29.65 in 7.0 mi NE 9.2 mph - N/A   Mostly Cloudy
10:35 AM 68.2 °F 64.6 °F 88% 29.65 in 7.0 mi NE 8.1 mph - N/A   Overcast
10:55 AM 68.2 °F 64.6 °F 88% 29.65 in 5.0 mi NNE 8.1 mph - N/A   Light Drizzle
11:15 AM 68.9 °F 64.8 °F 87% 29.66 in 7.0 mi NNE 9.2 mph - N/A   Mostly Cloudy
11:35 AM 68.2 °F 64.6 °F 88% 29.66 in 5.0 mi NNE 10.4 mph - N/A Rain Rain
11:55 AM 68.9 °F 65.5 °F 89% 29.66 in 10.0 mi NNE 15.0 mph - 0.01 in Rain , Thunderstorm Light Thunderstorms and Rain
12:15 PM 66.2 °F 63.3 °F 90% 29.67 in 2.5 mi NNE 12.7 mph - 0.10 in Rain Heavy Rain
12:35 PM 66.6 °F 63.7 °F 90% 29.67 in 4.0 mi NNE 12.7 mph 19.6 mph 0.12 in Rain , Thunderstorm Light Thunderstorms and Rain
12:55 PM 66.4 °F 63.5 °F 90% 29.67 in 3.0 mi NNE 13.8 mph - 0.16 in Rain Rain
1:15 PM 65.7 °F 62.8 °F 90% 29.68 in 5.0 mi NNE 16.1 mph 19.6 mph N/A Rain Rain
1:35 PM 65.5 °F 62.6 °F 90% 29.69 in 7.0 mi NE 13.8 mph - 0.02 in Rain Light Rain
1:55 PM 65.1 °F 62.2 °F 90% 29.69 in 2.5 mi NNE 12.7 mph - 0.09 in Rain , Thunderstorm Heavy Thunderstorms and Rain
2:15 PM 64.4 °F 61.3 °F 90% 29.70 in 5.0 mi NNE 11.5 mph - 0.06 in Rain Rain
2:35 PM 64.4 °F 61.7 °F 91% 29.70 in 7.0 mi NNE 9.2 mph - 0.09 in Rain Rain
2:55 PM 64.9 °F 61.9 °F 90% 29.70 in 10.0 mi NNE 10.4 mph - 0.10 in   Light Drizzle
3:15 PM 65.5 °F 62.6 °F 90% 29.71 in 10.0 mi NNE 8.1 mph - N/A   Mostly Cloudy
3:35 PM 65.5 °F 62.6 °F 90% 29.71 in 10.0 mi NNE 9.2 mph - N/A   Scattered Clouds
3:55 PM 66.4 °F 63.3 °F 90% 29.71 in 10.0 mi NNE 9.2 mph - N/A   Mostly Cloudy
4:15 PM 68.9 °F 63.7 °F 83% 29.71 in 10.0 mi NNE 9.2 mph - N/A   Mostly Cloudy
4:35 PM 69.8 °F 63.5 °F 80% 29.71 in 10.0 mi NNE 11.5 mph - N/A   Scattered Clouds
4:55 PM 69.4 °F 62.1 °F 77% 29.71 in 10.0 mi NNE 11.5 mph - N/A   Clear
5:15 PM 69.8 °F 62.6 °F 78% 29.72 in 10.0 mi NNE 10.4 mph - N/A   Clear
5:35 PM 69.4 °F 60.8 °F 74% 29.72 in 10.0 mi NNE 12.7 mph - N/A   Clear
5:55 PM 69.3 °F 58.8 °F 69% 29.72 in 10.0 mi NNE 17.3 mph 20.7 mph N/A   Clear
6:15 PM 68.9 °F 59.9 °F 73% 29.73 in 10.0 mi NNE 13.8 mph 19.6 mph N/A   Scattered Clouds
6:35 PM 68.4 °F 60.6 °F 76% 29.73 in 10.0 mi NNE 12.7 mph 18.4 mph N/A   Scattered Clouds
6:55 PM 68.0 °F 60.4 °F 77% 29.74 in 10.0 mi NNE 11.5 mph 18.4 mph N/A   Clear
7:15 PM 68.0 °F 60.8 °F 78% 29.75 in 10.0 mi NNE 11.5 mph - N/A   Scattered Clouds
7:35 PM 68.2 °F 61.0 °F 78% 29.75 in 10.0 mi NNE 9.2 mph - N/A   Scattered Clouds
7:55 PM 67.5 °F 59.9 °F 77% 29.76 in 10.0 mi NNE 12.7 mph 16.1 mph N/A   Clear
8:15 PM 66.6 °F 59.0 °F 77% 29.77 in 10.0 mi NNE 10.4 mph - N/A   Clear
8:35 PM 66.2 °F 58.8 °F 77% 29.77 in 10.0 mi NNE 13.8 mph 17.3 mph N/A   Mostly Cloudy
8:55 PM 66.4 °F 58.5 °F 76% 29.77 in 10.0 mi NE 15.0 mph - N/A   Overcast
9:15 PM 65.7 °F 58.5 °F 78% 29.78 in 10.0 mi NNE 11.5 mph - N/A   Overcast
9:35 PM 65.5 °F 58.5 °F 78% 29.79 in 10.0 mi NNE 12.7 mph 18.4 mph N/A   Overcast
9:55 PM 65.3 °F 58.6 °F 79% 29.79 in 10.0 mi NNE 13.8 mph - N/A   Mostly Cloudy
10:15 PM 64.4 °F 58.3 °F 80% 29.80 in 10.0 mi NNE 10.4 mph - N/A   Scattered Clouds
10:35 PM 63.3 °F 58.1 °F 83% 29.79 in 10.0 mi North 9.2 mph - N/A   Clear
10:55 PM 62.6 °F 57.9 °F 85% 29.80 in 10.0 mi North 6.9 mph - N/A   Clear
11:15 PM 62.4 °F 57.7 °F 85% 29.80 in 10.0 mi North 10.4 mph - N/A   Clear
11:35 PM 62.2 °F 57.6 °F 85% 29.80 in 10.0 mi North 9.2 mph - N/A   Clear
11:55 PM 62.2 °F 57.4 °F 84% 29.80 in 10.0 mi North 8.1 mph - N/A   Clear